This is the latest recevied weather packets stored in our database for station/object N2RDT. If no packets are shown the sender has not sent any weather packets the latest 10 day(s).
| Time | Temp. | Humidity | Pressure | Rain* | Wind** | Luminosity | Snow |
|---|---|---|---|---|---|---|---|
| 1777769034 | 10.56° C | 95% | 1013.1 hPa | 0 mm | - | 0 W/m² | - |
| 1777768732 | 10.56° C | 94% | 1013.2 hPa | 0 mm | - | 0 W/m² | - |
| 1777768428 | 10.56° C | 94% | 1012.9 hPa | 0 mm | - | 0 W/m² | - |
| 1777768125 | 11.11° C | 94% | 1012.8 hPa | 0 mm | - | 0 W/m² | - |
| 1777767822 | 11.11° C | 93% | 1012.9 hPa | 0 mm | - | 0 W/m² | - |
| 1777767518 | 11.11° C | 93% | 1012.7 hPa | 0 mm | - | 0 W/m² | - |
| 1777767215 | 11.11° C | 92% | 1012.7 hPa | 0 mm | - | 1 W/m² | - |
| 1777766912 | 11.67° C | 92% | 1012.7 hPa | 0 mm | - | 1 W/m² | - |
| 1777766610 | 11.67° C | 91% | 1012.4 hPa | 0 mm | - | 3 W/m² | - |
| 1777766306 | 11.67° C | 91% | 1012.5 hPa | 0 mm | - | 5 W/m² | - |
| 1777766004 | 11.67° C | 90% | 1012.4 hPa | 0 mm | - | 7 W/m² | - |
| 1777765700 | 11.67° C | 90% | 1012.5 hPa | 0 mm | - | 8 W/m² | - |
| 1777765397 | 11.67° C | 90% | 1012.7 hPa | 0 mm | - | 10 W/m² | - |
| 1777765094 | 11.67° C | 89% | 1012.5 hPa | 0 mm | - | 11 W/m² | - |
| 1777764790 | 12.22° C | 88% | 1012.5 hPa | 0 mm | - | 12 W/m² | - |
| 1777764487 | 12.22° C | 88% | 1012.5 hPa | 0 mm | - | 13 W/m² | - |
| 1777764184 | 12.22° C | 87% | 1012.3 hPa | 0 mm | - | 16 W/m² | - |
| 1777763880 | 12.22° C | 87% | 1012.2 hPa | 0 mm | - | 16 W/m² | - |
| 1777763578 | 12.22° C | 87% | 1012.2 hPa | 0 mm | - | 15 W/m² | - |
| 1777763276 | 12.22° C | 88% | 1012.1 hPa | 0 mm | - | 14 W/m² | - |
| 1777762974 | 12.22° C | 88% | 1012.2 hPa | 0 mm | - | 18 W/m² | - |
| 1777762670 | 12.22° C | 88% | 1012.2 hPa | 0 mm | - | 31 W/m² | - |
| 1777762367 | 12.22° C | 87% | 1012.2 hPa | 0 mm | - | 42 W/m² | - |
| 1777762064 | 12.22° C | 87% | 1012.2 hPa | 0 mm | - | 40 W/m² | - |
| 1777761760 | 12.22° C | 87% | 1012.3 hPa | 0 mm | - | 35 W/m² | - |
* Rain latest hour (hover to see other rain measurements)
** Current wind speed in m/s (hover to see current wind gust speed)